Wind_Speed
29 30 32 35 35 35 33 32 31 33 34 34 34 33 32 29 28 28 27 27 27 27 25 24 23 22 21 19 16 16 16 17 18 18 18 18 19 19 20 20 20 19 19 19 19 18 18 20 21 22 23 23 22 21 20 20 20 21 23 24 23 22 22 22 23 23 22 22 21 22 23 24 25 26 27 28 28 29 31 30 29 29 28 27 27 27 24
30 28 28 31 34 36 36 35 33 32 33 33 33 33 32 31 30 28 27 27 28 27 26 24 22 21 20 18 16 16 17 17 17 18 19 20 20 20 20 19 19 19 18 18 18 18 18 18 19 20 21 22 22 22 22 22 22 22 23 24 24 25 24 24 24 23 23 23 23 23 24 25 25 26 28 30 30 29 29 29 30 31 29 28 28 28 26
33 31 28 28 31 34 36 37 35 33 33 32 31 31 31 33 32 28 27 28 29 29 28 26 25 24 24 25 25 24 22 20 19 19 20 21 21 21 20 20 20 19 19 19 19 19 19 18 18 18 19 21 21 21 22 22 23 23 23 23 23 25 26 26 25 24 23 24 24 25 25 26 27 27 29 32 33 31 28 27 27 27 27 29 29 28 28
37 36 31 27 28 32 35 35 34 32 31 29 28 28 29 31 32 30 29 30 31 31 30 28 27 26 25 24 25 26 25 23 22 22 22 22 22 21 21 21 21 21 20 20 21 21 21 20 19 18 18 19 19 20 21 22 23 23 23 23 23 24 26 27 25 24 24 24 26 26 26 27 28 27 28 32 36 35 29 25 24 24 25 27 27 28 31
40 41 34 23 21 27 31 32 32 31 30 28 26 26 27 28 29 30 31 32 32 32 31 29 28 26 23 20 20 23 24 24 24 24 24 24 24 23 24 24 24 24 23 22 22 22 22 22 21 20 19 19 19 19 20 21 22 23 22 23 22 22 25 26 25 24 24 23 24 25 26 28 28 27 28 32 37 38 32 24 23 24 25 26 27 30 33
32 36 32 24 20 22 25 26 27 27 27 27 27 28 28 27 26 26 27 30 32 31 30 28 27 26 25 22 21 23 23 24 25 26 26 26 26 25 26 26 26 26 26 25 24 24 24 24 23 22 21 20 20 20 20 21 22 22 22 21 21 21 23 24 24 24 23 22 22 23 24 27 29 29 31 33 36 39 35 26 23 25 25 27 30 32 34
23 24 26 26 24 22 21 23 24 23 23 23 25 27 28 27 25 23 21 23 26 28 28 27 26 26 26 25 25 26 25 25 26 28 28 28 28 27 27 28 28 28 27 27 27 26 25 25 24 23 22 22 21 21 21 21 22 22 22 22 21 21 21 22 22 22 21 20 20 21 24 28 30 30 33 34 36 40 37 28 25 25 25 26 29 31 33
20 19 20 22 23 21 21 22 23 23 22 22 23 24 26 26 26 23 20 19 19 22 25 26 27 27 27 26 25 25 25 25 26 27 28 28 28 28 29 29 30 30 29 28 28 27 26 26 25 24 23 23 23 23 23 22 22 22 22 22 22 22 22 21 20 20 20 20 20 21 25 30 30 30 33 34 37 41 36 27 26 26 25 26 28 28 30
20 19 19 19 20 20 21 21 22 22 22 22 23 24 25 26 26 26 25 23 22 22 23 25 27 28 27 26 25 26 26 26 26 26 27 28 28 29 29 30 31 31 30 30 30 29 28 27 26 26 24 24 24 25 24 23 23 22 22 22 22 22 22 20 19 20 21 21 20 21 23 26 27 29 31 33 37 40 34 27 26 27 27 28 30 30 30
22 21 21 20 20 20 21 21 21 21 21 21 23 24 24 25 25 26 26 26 25 24 24 25 26 27 27 26 26 28 29 30 29 29 30 30 30 30 31 31 31 31 32 32 31 30 29 28 28 27 26 25 25 26 26 24 23 23 23 23 22 21 20 20 20 20 21 22 22 22 22 23 25 27 30 32 37 37 31 26 27 29 30 31 32 31 31
23 23 22 22 21 21 22 22 22 22 21 21 21 23 23 23 24 25 25 25 24 24 24 25 26 28 29 28 28 28 30 31 32 32 32 32 31 31 31 32 32 32 33 33 32 31 30 29 29 28 28 27 26 27 27 26 24 24 24 24 23 21 20 20 20 19 21 25 25 24 24 24 24 26 30 34 38 36 30 27 29 32 34 34 33 31 31
23 23 22 22 22 22 22 22 22 23 22 21 21 22 22 23 23 24 24 25 26 26 26 26 27 29 30 31 31 30 29 29 31 33 33 33 33 32 32 32 32 33 34 34 34 33 31 30 30 30 30 29 28 28 28 27 25 24 25 25 25 23 22 21 20 18 17 20 22 23 25 25 25 27 30 34 37 35 32 31 32 34 35 36 34 30 29
22 22 22 21 21 21 21 20 21 21 21 20 20 21 21 22 22 23 24 25 25 26 26 26 27 28 30 31 32 31 30 29 30 31 33 34 35 35 34 34 34 34 35 35 35 34 33 31 31 32 32 31 29 29 29 28 26 25 25 25 25 24 23 22 21 17 12 12 16 21 26 28 29 31 33 36 37 36 35 33 32 33 35 35 34 31 29
21 21 20 20 20 21 21 20 19 19 19 18 17 17 17 18 19 21 22 22 22 22 23 23 24 24 26 27 28 29 30 30 30 31 32 34 35 37 37 37 37 36 36 36 35 35 35 34 33 33 33 33 31 30 30 29 27 25 25 25 24 23 22 22 21 17 13 13 18 24 27 30 32 33 35 37 38 37 36 34 33 34 37 37 37 34 30
18 18 17 17 17 19 19 19 19 19 18 16 14 14 14 14 15 17 18 18 19 19 20 20 21 21 22 23 24 26 27 28 29 30 31 32 34 36 37 38 38 38 37 37 36 36 36 36 35 33 32 33 33 31 31 31 30 27 26 26 25 23 22 22 21 19 16 15 19 23 26 29 31 32 34 37 38 37 36 35 34 35 37 41 42 37 31
16 16 16 16 15 15 16 17 17 17 16 15 14 14 15 15 15 16 16 17 17 18 18 19 19 20 21 21 22 23 24 25 26 26 27 28 29 31 33 35 36 36 36 36 37 36 35 35 34 32 32 34 33 32 31 32 32 31 28 27 26 25 23 22 21 20 19 19 20 21 21 23 25 27 30 34 37 36 34 34 35 34 34 38 41 39 35
15 16 17 17 17 16 16 16 16 17 17 17 16 16 17 18 17 17 16 16 17 18 19 19 20 20 21 21 22 23 24 24 25 25 26 27 27 29 30 31 33 34 34 35 35 36 34 34 34 34 34 34 34 33 33 32 32 33 31 29 27 26 25 24 23 22 21 21 22 22 21 21 21 19 19 24 29 33 35 35 35 35 33 34 37 39 38
15 16 17 18 18 17 16 16 15 15 16 17 17 18 19 19 18 17 16 16 17 18 19 20 20 21 22 22 23 24 25 25 26 27 27 27 28 29 30 30 31 32 32 32 33 34 33 33 35 36 36 35 34 34 33 33 33 34 33 31 29 27 26 25 24 24 23 22 22 23 24 24 21 17 15 16 20 26 32 35 37 38 37 35 35 36 37
15 15 16 17 18 17 15 15 14 14 15 15 15 15 15 15 14 13 13 13 14 15 17 18 19 20 21 22 23 24 25 26 27 28 29 29 29 30 30 31 31 31 31 32 32 33 33 34 34 35 36 36 35 34 33 33 33 34 34 33 30 27 27 26 25 25 25 24 24 24 25 26 25 21 19 19 18 18 22 27 31 36 38 36 33 31 29
12 12 12 13 15 16 15 14 14 15 14 12 10 9 9 9 9 9 10 11 12 13 15 16 17 19 20 21 22 23 24 26 27 28 29 30 31 32 32 32 32 32 33 33 34 34 35 35 35 35 35 35 36 35 33 32 32 33 33 32 30 28 27 26 25 25 25 25 25 25 25 26 26 23 21 20 19 19 21 23 26 29 31 31 29 27 25
10 11 10 10 11 13 13 13 13 13 11 9 8 7 7 6 6 6 8 9 10 12 14 16 18 19 21 23 24 25 26 27 28 29 29 30 31 32 33 34 35 35 35 35 36 36 36 36 36 35 35 35 36 36 34 32 31 32 32 32 31 29 28 27 26 25 25 25 24 24 24 24 24 23 22 21 21 23 26 25 24 25 26 25 25 24 24
10 12 12 14 16 14 13 13 12 10 8 6 5 4 4 4 5 6 7 8 9 11 12 14 16 18 20 22 24 26 28 30 31 32 33 34 34 34 35 35 36 36 37 37 38 38 38 38 37 36 35 35 35 35 35 34 32 31 30 30 30 27 26 27 28 28 28 27 26 25 25 25 25 25 26 25 26 27 28 27 27 28 29 30 30 29 29
11 12 13 14 16 14 11 10 8 7 6 4 3 3 3 4 5 6 7 9 11 12 13 14 16 17 19 20 22 24 26 28 30 33 35 37 38 38 39 39 39 38 39 39 39 39 39 39 39 38 37 36 35 35 35 35 34 32 30 30 29 27 27 29 32 33 33 32 30 28 28 28 28 28 29 29 30 31 32 33 34 36 37 37 35 34 34
12 12 12 11 12 12 10 8 7 6 4 3 1 2 3 5 7 9 11 12 13 14 15 17 18 19 20 21 21 22 23 25 27 29 31 34 37 39 40 42 42 42 41 41 40 40 40 39 39 38 37 37 37 36 36 35 34 33 31 31 31 31 31 33 35 37 38 37 35 33 32 32 32 32 33 33 34 35 36 37 39 41 41 41 40 39 38
14 13 11 10 10 10 8 6 4 3 1 1 2 4 6 7 9 10 12 13 14 15 16 17 18 20 21 21 21 22 22 22 23 24 26 28 30 33 36 38 40 42 42 42 42 41 41 40 39 38 37 37 36 37 37 36 35 34 33 33 33 34 35 36 37 38 39 39 38 37 35 34 34 34 35 36 37 38 38 38 39 40 41 42 42 42 42
13 11 10 9 8 7 6 4 3 1 1 2 3 4 6 7 8 9 11 12 13 13 15 16 17 19 20 20 21 21 21 22 22 22 23 24 25 27 29 31 33 36 38 40 41 42 42 41 39 39 38 37 36 35 35 35 34 34 34 34 35 37 38 39 39 39 38 38 38 38 37 36 36 36 37 38 39 41 41 41 41 41 41 41 42 42 42
11 10 9 8 7 7 6 5 4 3 2 2 3 3 4 5 7 7 8 10 11 12 14 15 16 18 19 20 21 21 22 22 22 22 23 23 24 24 25 26 28 30 32 34 37 39 40 41 41 40 40 39 38 37 36 35 34 34 34 35 36 38 40 42 43 43 41 40 39 39 38 38 39 40 41 41 41 41 42 44 45 45 45 45 45 44 42
9 8 7 7 6 5 5 4 4 3 2 2 2 2 3 4 5 7 8 10 12 13 15 16 17 18 19 20 22 22 22 23 22 22 22 22 22 23 23 24 25 26 27 29 31 33 35 37 39 40 40 40 40 40 39 38 37 35 35 36 36 37 38 40 43 45 46 46 44 42 41 41 41 41 43 43 43 43 43 44 45 46 46 47 46 46 44
7 6 5 4 4 3 3 2 1 0 1 1 2 4 5 7 8 9 11 12 14 15 17 18 19 20 21 22 23 24 24 24 23 23 22 22 22 22 22 22 22 23 24 26 27 28 29 31 34 37 39 40 40 40 41 41 41 39 38 38 37 37 37 37 38 41 44 46 47 45 44 43 42 42 42 43 44 45 45 45 45 45 45 45 44 43 43
5 4 4 3 2 2 2 1 1 1 1 2 3 4 6 7 9 10 12 13 15 16 18 19 21 22 23 24 24 25 25 25 25 24 23 23 22 23 23 23 22 22 23 24 24 25 26 27 29 31 33 36 38 39 40 41 42 42 42 41 41 40 40 38 37 37 38 41 43 43 43 43 43 43 43 42 42 42 43 44 45 45 45 44 44 43 41
4 3 2 2 2 1 0 1 1 0 1 2 3 5 7 8 10 11 12 14 16 17 18 20 21 23 24 24 25 26 26 26 26 26 25 24 23 22 23 23 23 23 23 23 23 24 24 25 25 26 28 30 32 34 37 39 40 41 42 43 43 43 43 42 41 39 38 39 39 41 41 42 42 43 43 43 42 41 41 41 41 41 41 41 41 41 39
3 3 2 2 1 1 2 1 1 2 3 4 5 7 9 10 11 12 14 15 16 18 19 20 22 23 24 25 26 26 27 27 27 27 26 25 25 24 23 23 23 23 23 23 23 23 23 23 24 24 24 25 26 28 31 34 36 39 40 41 42 43 43 43 43 42 42 41 41 41 41 41 42 42 41 41 41 40 39 39 39 39 38 39 39 39 37
2 1 1 1 2 2 1 1 1 3 4 6 7 9 10 11 12 13 15 16 17 18 20 21 22 23 24 25 26 27 27 28 28 28 27 27 26 26 25 25 24 24 24 23 23 23 22 22 22 23 22 22 23 23 25 27 29 33 36 38 39 41 41 41 41 41 42 42 42 42 42 42 42 42 42 41 41 40 39 40 40 40 39 38 38 39 38
1 1 2 3 3 2 1 0 2 3 5 7 8 9 10 11 12 14 15 16 17 19 20 21 22 23 25 26 27 27 28 28 28 28 28 28 27 27 27 26 26 26 25 24 25 25 24 23 22 22 21 21 21 21 22 22 24 26 29 32 34 36 37 38 39 40 40 41 41 41 41 42 42 42 42 42 42 42 41 41 40 40 40 39 38 38 38
1 0 1 1 0 1 2 2 3 5 6 7 9 10 11 12 13 14 15 16 17 19 20 21 22 23 25 26 27 28 29 29 29 29 29 28 28 27 27 28 28 27 26 25 25 25 25 24 23 22 21 21 21 21 20 20 20 21 23 25 27 29 31 33 35 36 38 39 39 40 40 40 40 40 41 42 42 42 41 41 40 40 40 39 39 38 38
2 1 1 2 2 3 4 4 5 6 7 8 10 11 12 12 13 14 14 16 17 18 19 21 22 23 24 25 27 28 29 30 30 30 29 29 28 28 28 29 29 28 27 26 25 25 25 24 23 22 22 21 21 20 20 20 19 20 20 21 22 23 25 26 28 31 33 35 36 37 37 38 38 39 39 40 41 41 41 40 40 39 39 40 39 38 38
3 3 3 4 4 5 6 7 7 8 9 9 10 11 11 12 13 13 14 15 17 18 19 20 21 22 23 24 26 27 28 30 30 31 31 30 29 29 29 29 29 29 28 26 25 24 24 24 23 22 21 21 20 20 20 20 19 19 19 20 20 20 20 21 22 24 26 29 31 32 33 35 36 36 37 38 39 40 40 40 39 39 39 39 39 38 38
3 3 4 5 5 6 7 8 8 9 9 10 10 11 11 12 12 13 14 15 16 17 18 19 20 21 22 23 25 26 28 29 30 31 31 31 30 30 29 29 29 29 28 27 25 24 24 24 24 23 22 21 21 21 20 20 20 19 19 19 19 19 20 20 20 20 22 25 26 27 29 30 32 33 34 34 35 36 37 37 37 37 37 37 37 36 36
2 3 4 5 6 7 8 8 8 9 9 10 10 11 11 12 12 13 13 14 15 16 17 18 19 21 22 23 24 25 27 28 29 31 32 32 31 31 30 29 29 29 29 28 26 25 25 26 25 24 23 22 22 22 21 20 19 19 19 19 19 19 19 20 20 20 21 23 24 24 25 26 27 28 30 30 31 32 32 33 33 33 33 34 33 33 34
2 3 4 5 6 7 7 7 8 8 9 9 10 11 11 11 12 12 13 13 14 15 17 18 19 20 22 23 23 24 26 27 28 30 31 32 32 32 31 30 30 30 30 29 27 26 25 26 26 25 23 23 23 22 21 20 19 18 18 18 18 17 18 19 20 20 20 21 22 22 22 23 23 24 26 27 27 28 28 29 29 30 30 30 30 30 30
3 3 4 5 5 6 6 7 7 8 9 9 10 10 11 11 11 12 12 13 14 15 17 18 19 20 21 22 23 24 25 26 27 28 30 30 31 32 31 30 30 30 30 29 28 26 26 26 26 26 25 24 23 22 21 21 20 18 18 18 18 17 17 18 20 20 19 19 19 19 20 20 21 22 23 23 24 25 25 25 26 26 26 26 26 26 27
3 3 3 4 4 5 6 6 7 8 8 9 9 10 10 11 11 12 12 13 15 16 17 18 19 20 21 22 23 24 25 26 27 28 29 30 31 31 31 30 30 31 30 29 28 27 26 25 25 26 26 25 24 23 22 22 21 19 18 17 18 18 18 18 19 20 20 19 18 18 18 19 20 20 21 21 21 22 22 23 23 24 24 24 24 24 25
3 2 2 3 3 4 5 6 6 7 8 8 9 9 10 11 12 13 14 14 15 17 18 19 20 21 22 23 24 25 26 27 27 28 29 30 31 31 31 31 30 30 30 30 28 27 26 25 24 25 25 25 24 22 22 22 21 20 18 17 17 18 18 18 19 19 19 19 18 17 18 18 19 20 21 20 20 20 21 21 22 22 23 23 23 24 24
2 1 1 2 3 4 5 5 6 7 7 8 8 9 10 11 13 14 15 16 17 18 19 20 21 22 23 24 24 25 26 27 27 28 29 30 30 31 31 31 31 31 31 31 30 28 27 26 26 25 25 24 23 22 21 20 20 19 18 17 17 17 17 18 18 19 19 19 19 18 17 18 18 20 21 21 20 20 20 21 21 21 22 22 23 23 23
1 1 2 2 3 5 5 5 5 6 7 7 8 10 11 13 14 15 16 17 18 19 20 21 22 23 23 24 25 26 27 27 28 28 29 29 30 31 31 31 31 31 31 31 30 29 28 28 27 26 24 23 22 21 20 19 18 18 17 17 16 16 16 17 17 18 19 19 19 19 18 17 17 18 20 21 21 20 20 20 20 20 21 22 22 22 22
1 2 3 3 4 5 6 5 5 5 6 7 9 11 12 13 14 15 17 17 18 19 20 22 23 23 24 25 26 27 28 28 29 29 29 30 30 31 32 32 31 31 31 31 31 30 29 28 27 25 24 22 21 21 19 18 17 17 17 17 16 15 15 15 17 17 18 18 18 18 17 16 16 17 18 20 21 20 20 20 20 20 20 21 21 22 22
3 4 5 5 5 6 6 6 6 6 7 8 10 12 13 14 15 17 18 18 19 20 21 22 23 24 25 26 27 28 28 29 29 29 30 30 31 31 32 32 31 31 31 31 31 31 30 29 27 25 23 23 22 21 20 19 18 17 17 16 16 15 14 14 15 16 16 17 18 18 17 16 16 16 17 19 20 20 20 20 20 20 20 21 22 22 23
5 6 6 6 6 7 7 7 6 7 8 10 12 13 14 15 16 17 18 19 20 21 21 23 24 25 26 27 28 28 29 29 30 30 30 31 31 32 32 32 31 31 31 31 31 32 32 30 28 25 24 23 23 22 21 20 20 18 17 16 16 16 15 14 13 13 14 15 16 17 17 16 15 15 16 17 19 20 20 20 21 21 21 21 22 22 22
6 7 7 7 7 7 7 7 7 8 10 12 13 14 15 16 17 18 19 20 21 22 23 24 25 25 27 28 28 29 30 30 30 31 31 31 31 32 32 32 32 32 31 31 31 32 32 32 30 27 25 24 25 25 24 22 21 20 18 17 17 16 16 15 14 13 13 13 14 15 17 17 16 15 15 16 18 19 20 20 21 21 21 21 22 23 23
7 8 8 8 8 8 7 8 9 11 12 13 13 14 15 17 18 19 20 21 22 23 24 25 26 26 27 28 29 29 30 30 31 31 31 31 31 32 32 32 32 32 32 31 31 32 32 32 31 30 27 26 26 26 25 23 22 20 19 19 18 18 17 17 16 15 14 13 13 13 14 15 15 14 15 16 17 18 19 20 20 21 21 21 22 23 24
8 9 9 9 9 8 8 9 11 13 14 14 14 15 16 18 20 21 22 23 23 24 25 26 27 28 29 29 29 30 31 31 32 32 32 32 32 32 32 33 33 32 32 32 31 32 32 32 32 32 30 27 26 26 25 23 21 20 19 19 19 19 19 19 18 17 16 15 14 13 12 13 13 13 14 16 17 17 17 18 20 21 21 21 23 24 25
9 10 10 9 9 8 9 10 12 14 15 16 17 17 19 20 22 23 24 24 25 26 26 27 28 29 30 30 30 31 31 32 32 33 33 33 33 33 33 33 33 33 33 32 32 32 32 32 32 33 31 29 26 26 25 24 23 22 21 20 19 19 19 20 20 19 18 17 16 14 13 13 12 12 13 15 17 16 16 17 19 21 21 21 23 24 25
Wind_Direction
222 221 224 227 228 227 225 225 225 225 227 231 235 235 235 237 241 244 248 251 252 252 255 258 258 258 263 268 267 261 259 261 265 265 262 262 263 264 265 267 269 271 273 275 276 277 277 276 276 277 277 278 278 277 276 273 272 271 274 280 282 280 276 273 271 269 267 266 260 254 250 241 236 237 233 229 225 221 224 231 233 232 234 236 231 222 222
228 228 228 229 230 229 227 226 227 229 229 231 233 235 236 238 242 247 250 253 253 254 256 258 257 257 259 258 260 265 265 260 259 257 258 260 259 260 262 264 266 268 270 273 276 278 279 279 279 279 279 279 280 281 280 277 275 274 275 277 279 278 276 273 272 270 267 266 263 257 249 242 239 237 230 224 219 219 225 233 235 235 234 235 230 221 219
231 233 234 235 234 231 228 227 229 233 235 236 234 234 236 240 243 246 250 252 253 254 256 258 257 259 261 260 261 265 263 254 250 252 256 258 258 258 260 261 263 266 269 273 276 278 280 281 283 283 281 281 281 283 283 280 278 276 275 275 274 274 275 274 271 269 266 263 261 257 251 245 243 239 231 224 220 220 225 229 234 238 237 236 232 221 218
233 234 235 238 237 230 227 228 230 233 237 238 237 236 238 240 242 245 248 250 252 253 255 258 259 261 265 263 258 256 253 249 249 251 252 253 255 257 259 261 262 264 267 270 273 277 280 282 283 284 284 283 283 284 284 284 283 281 280 279 274 270 270 271 270 266 262 258 256 256 252 248 245 241 234 226 220 219 224 226 229 236 237 235 234 226 223
233 234 232 234 235 228 225 227 231 234 236 237 238 238 238 240 242 245 247 248 250 251 253 255 256 257 262 263 256 250 247 245 247 250 250 249 251 254 257 261 263 264 266 267 269 272 275 278 281 284 285 285 283 283 284 285 286 286 287 286 282 275 271 271 270 265 260 256 254 254 252 249 245 241 233 225 218 217 221 226 229 234 236 234 231 228 227
229 229 225 225 231 229 225 226 229 233 237 237 238 239 240 241 244 247 249 249 248 249 251 252 252 253 257 261 258 253 249 246 247 250 250 249 250 252 256 260 263 265 267 267 268 269 270 273 277 280 283 285 284 282 282 284 287 289 290 289 287 282 277 274 271 266 260 257 253 255 258 253 247 240 229 222 220 218 221 229 233 235 239 237 231 229 227
229 229 225 227 233 236 233 231 231 234 238 239 238 239 240 242 244 247 250 250 249 249 250 252 252 252 256 259 259 257 254 250 248 249 249 250 251 253 256 259 262 264 266 267 267 268 269 271 273 275 278 281 282 282 281 282 286 289 291 291 288 285 281 276 270 263 259 256 253 256 254 243 239 235 224 220 222 220 221 232 237 237 242 238 232 233 233
231 233 232 233 237 240 240 239 238 238 240 241 242 241 241 242 243 244 247 249 252 252 253 254 255 256 257 257 256 254 252 249 247 247 247 249 251 253 256 258 260 263 264 265 266 267 268 270 271 273 275 277 279 280 279 279 281 284 287 289 289 287 285 278 266 254 249 246 246 250 245 233 227 224 219 221 225 221 223 236 241 240 241 234 229 234 237
234 234 234 236 240 242 243 244 244 244 243 243 245 246 246 246 246 247 249 252 256 259 259 258 257 257 257 255 251 249 250 250 247 245 245 247 250 253 254 255 257 260 262 263 263 265 267 269 272 273 274 276 277 277 278 277 278 279 281 284 286 287 286 280 266 253 245 239 238 243 242 233 224 218 219 226 226 221 226 242 247 245 241 233 229 231 232
235 236 237 240 243 245 246 247 248 248 247 247 248 250 251 251 251 252 253 254 256 257 257 258 257 256 256 255 253 252 253 252 250 248 248 249 250 251 251 252 254 257 259 261 261 262 265 267 270 273 275 276 276 277 278 278 277 278 279 280 282 284 284 278 267 255 243 237 239 242 240 235 227 222 226 230 224 222 232 246 249 247 241 232 228 226 224
236 238 239 241 243 245 246 247 248 249 250 250 250 251 252 252 252 252 253 253 253 251 251 252 254 255 256 256 256 256 255 254 252 252 252 251 251 250 249 250 251 253 257 259 260 261 262 264 267 270 273 275 275 276 277 278 277 276 277 279 281 283 282 274 268 259 240 231 235 239 237 235 230 228 233 229 218 219 234 245 247 246 238 228 222 220 221
238 239 240 241 243 244 246 248 249 251 252 253 253 253 254 253 253 252 251 250 249 249 248 249 251 253 255 256 256 256 256 255 254 253 253 254 253 252 251 251 251 252 254 257 260 261 261 262 264 266 268 270 271 273 275 276 276 275 275 278 280 284 284 277 275 269 244 227 230 233 234 236 230 229 235 228 217 221 236 243 244 242 233 224 218 219 223
238 239 239 240 241 243 245 247 249 250 251 252 252 254 256 255 254 252 251 249 249 250 251 250 250 251 253 255 256 256 256 255 254 254 255 255 255 255 253 252 252 252 253 254 256 259 260 261 263 264 266 267 268 270 271 273 274 273 273 275 277 280 283 282 282 279 265 255 255 245 238 238 232 228 231 228 224 231 241 242 238 232 225 222 223 226 231
235 237 238 240 241 241 242 244 245 246 248 249 250 253 255 254 251 249 249 250 250 250 250 250 250 251 252 254 255 256 255 255 254 254 255 257 257 256 254 253 253 253 254 255 255 257 258 259 259 261 265 267 267 268 269 270 271 270 270 271 273 276 279 280 282 280 271 268 266 255 247 244 237 229 228 229 232 239 241 239 234 227 223 224 226 229 231
234 236 238 241 243 243 242 241 243 244 245 246 247 249 251 250 248 246 245 246 246 247 247 248 249 250 251 252 254 255 255 255 254 254 255 256 257 256 255 254 254 254 255 256 256 257 258 258 259 261 264 266 266 266 267 268 269 269 268 268 269 272 274 276 277 275 266 255 253 254 253 250 244 238 235 234 236 240 240 237 233 230 228 227 227 228 232
236 238 240 242 243 244 242 239 239 240 240 239 240 243 246 245 243 240 240 241 244 246 247 249 250 251 252 253 255 257 258 259 259 259 258 258 258 258 257 256 257 257 256 256 256 257 258 261 263 263 264 266 266 266 265 265 266 267 266 266 267 269 272 273 273 272 267 259 254 254 252 248 248 250 247 242 240 241 241 238 235 235 236 232 228 230 235
240 242 244 243 241 240 238 234 233 232 233 237 240 242 243 242 240 237 238 240 243 246 249 251 252 253 254 255 255 257 258 260 261 262 262 261 261 261 261 260 261 260 259 258 258 258 259 262 264 264 264 265 266 267 266 265 265 266 266 265 265 266 268 269 268 267 264 260 257 257 255 251 246 244 245 246 246 246 245 242 239 239 242 240 234 233 238
238 240 241 240 238 235 229 224 225 225 227 233 238 239 238 238 239 241 244 247 250 252 255 256 257 257 257 258 258 258 259 260 261 262 262 262 262 261 261 262 263 263 262 262 261 260 260 261 263 264 265 265 264 265 265 264 264 265 266 266 266 265 265 264 262 260 259 257 253 252 253 252 248 242 239 241 245 247 246 245 244 243 243 243 241 240 242
235 236 237 237 233 225 215 210 213 215 215 220 225 228 229 231 236 242 249 254 257 259 260 262 262 262 262 261 261 261 261 262 262 263 264 264 264 264 263 263 263 263 263 264 265 265 264 264 263 264 266 266 265 263 261 261 261 263 265 266 266 265 263 261 257 254 252 252 250 247 245 245 246 249 248 242 241 243 244 244 244 243 242 242 240 237 236
227 225 228 228 221 211 201 199 205 208 206 204 205 207 213 221 230 240 249 257 262 265 267 268 269 268 268 267 266 266 265 265 265 266 266 266 266 266 266 266 266 266 265 265 266 267 267 267 267 267 268 268 268 266 264 261 258 257 260 262 262 261 259 257 255 251 247 247 248 247 244 241 242 247 250 247 243 241 240 240 237 234 233 234 231 227 228
197 197 199 193 187 187 187 188 193 194 190 186 189 197 207 221 236 252 264 273 277 279 279 279 278 277 275 274 272 270 269 268 268 267 267 267 267 267 267 267 268 268 269 269 269 269 269 269 269 269 268 269 269 270 269 265 259 254 253 255 256 258 258 256 253 248 244 242 243 244 243 240 241 246 249 249 245 241 237 233 226 221 224 230 234 234 234
166 175 172 162 157 160 169 174 174 172 170 173 185 200 220 240 254 265 274 280 284 286 288 288 288 287 286 283 280 277 274 271 269 268 267 267 267 267 267 267 267 268 268 269 269 270 271 271 272 271 269 268 268 268 268 267 265 260 255 251 250 252 255 257 255 251 247 244 243 244 243 239 238 241 245 247 247 244 239 233 229 232 240 248 252 254 252
146 152 149 149 148 143 144 149 147 142 147 159 176 200 229 252 266 276 283 287 291 292 294 296 297 298 297 295 290 286 281 277 274 271 268 267 265 265 265 265 265 266 266 266 267 267 268 269 270 270 270 268 267 267 266 267 267 265 260 255 249 244 242 246 250 251 249 248 247 248 248 245 240 239 240 242 243 241 240 239 242 247 252 255 256 257 257
126 127 122 126 127 122 122 128 130 132 143 160 194 262 286 290 291 292 294 295 297 299 302 306 308 310 310 307 304 299 293 288 282 278 274 271 268 266 265 264 263 263 263 263 263 264 264 264 265 266 266 266 265 265 265 265 265 263 260 256 252 246 241 242 246 249 250 251 253 253 252 248 244 239 237 238 239 239 238 239 241 245 250 254 257 259 260
114 114 114 115 115 115 118 123 123 123 133 290 299 298 297 295 296 297 299 302 306 309 313 316 318 320 322 321 320 317 312 306 299 293 287 283 278 274 271 269 267 266 264 263 262 262 261 261 260 260 260 260 262 262 262 262 261 259 256 252 249 247 245 245 248 251 253 255 258 258 257 253 248 243 239 238 239 242 243 242 241 241 243 247 251 256 259
119 122 125 123 119 119 123 128 133 153 221 280 291 298 302 303 305 307 309 313 317 320 322 323 325 328 330 330 329 329 327 323 319 313 307 300 294 288 282 278 275 273 270 268 266 265 263 261 260 258 257 255 255 256 256 256 255 255 252 249 246 244 243 244 246 248 249 251 252 253 254 252 250 248 246 243 242 243 246 248 247 246 244 243 244 245 247
131 134 136 135 135 139 145 152 163 181 204 236 268 285 293 298 305 312 318 324 328 331 331 332 333 334 335 336 336 337 336 334 331 328 322 317 310 303 297 290 284 280 277 274 271 269 267 265 263 262 260 258 255 253 251 250 248 247 246 245 244 244 243 243 245 245 245 246 246 246 246 245 245 245 245 244 243 242 242 244 246 247 246 246 244 242 240
132 134 135 136 137 142 151 160 168 180 194 210 239 283 312 328 336 341 344 344 344 343 342 341 341 340 341 341 342 342 342 340 338 335 331 327 321 316 310 303 296 290 285 281 278 274 271 269 266 264 263 261 260 258 255 252 249 245 242 241 240 241 241 243 244 245 246 247 248 247 247 247 247 246 244 243 244 244 244 244 244 246 246 246 246 245 245
121 123 125 129 136 143 145 144 133 105 25 17 15 10 6 1 356 354 352 350 347 347 346 344 344 344 345 345 345 345 345 344 342 340 337 333 329 325 321 315 309 302 296 290 286 282 279 275 271 268 265 262 261 260 259 257 255 252 249 246 243 240 239 240 242 244 245 247 249 250 250 250 251 251 249 248 247 248 250 251 251 252 252 252 252 252 252
110 115 124 131 132 114 83 47 8 1 10 20 19 10 1 354 352 352 351 348 346 346 346 345 345 345 345 345 345 345 344 343 343 343 342 339 335 332 329 325 322 317 310 303 297 292 287 283 279 275 270 266 263 261 260 259 258 256 256 255 253 249 246 244 243 244 245 246 247 248 249 250 250 251 251 251 251 251 251 253 254 255 256 257 257 258 259
75 74 77 75 62 47 40 224 225 261 357 359 357 351 347 347 349 348 346 344 343 343 344 344 344 344 344 344 344 343 343 343 343 343 342 341 338 335 332 329 327 325 321 316 310 303 297 292 287 283 279 274 269 265 262 260 259 258 257 257 256 256 255 253 251 249 249 249 249 248 248 248 249 250 251 252 253 254 254 254 255 257 258 258 259 260 262
46 33 31 33 9 282 252 246 299 354 347 342 344 344 343 345 347 346 346 345 345 344 344 343 343 342 343 343 343 342 342 342 342 342 342 341 340 339 336 332 329 327 325 322 318 312 305 299 294 291 287 283 278 273 268 264 261 259 258 257 257 257 257 257 257 256 254 254 254 253 252 251 251 251 251 251 252 255 257 258 258 260 261 261 260 260 262
37 36 88 171 209 226 238 294 344 345 343 343 345 347 348 347 347 348 348 347 346 346 346 345 343 343 343 342 342 342 341 342 342 342 341 341 341 340 339 336 333 330 326 323 321 318 313 307 300 296 293 290 287 283 278 273 268 263 260 259 258 257 256 256 256 256 256 256 255 255 255 255 254 254 254 253 254 255 257 258 259 260 262 263 263 263 264
16 200 189 194 207 218 224 346 354 358 356 351 349 352 353 353 354 354 352 350 348 347 346 345 344 343 343 342 342 341 341 341 341 342 341 341 341 341 340 337 335 333 331 327 323 320 319 316 309 302 297 293 291 289 285 281 277 272 268 264 261 259 258 256 255 255 255 255 254 254 254 255 255 256 256 256 256 256 256 257 259 260 261 262 263 263 264
322 247 209 198 217 23 37 35 26 19 11 2 358 358 358 357 357 357 355 352 349 348 346 346 345 344 343 343 342 341 341 341 341 341 341 341 341 340 339 337 335 335 334 330 326 322 321 321 318 312 306 300 295 292 290 286 282 278 275 272 268 265 262 260 258 256 255 254 253 253 253 253 252 253 253 254 254 255 255 256 256 257 258 258 259 260 261
345 1 41 47 41 41 42 38 31 25 19 13 8 5 2 359 358 357 356 353 351 348 347 346 345 344 344 343 343 342 341 341 340 340 340 340 340 339 338 336 336 336 335 332 328 325 324 323 322 320 316 310 304 299 295 291 288 283 278 276 274 272 269 267 264 262 260 258 256 254 252 252 251 249 249 249 250 251 252 252 253 253 254 254 255 256 257
346 7 42 53 52 48 46 39 31 23 19 15 12 9 5 1 358 357 357 355 351 348 347 346 345 344 344 344 344 343 342 341 340 339 338 338 339 339 338 337 336 336 335 333 329 326 324 324 323 322 321 319 315 310 302 297 293 289 284 279 276 275 274 272 271 269 266 263 261 258 255 253 252 250 249 248 248 249 249 249 249 249 250 251 252 253 253
355 12 39 53 54 50 46 41 33 25 17 13 10 7 3 1 359 358 359 357 353 349 347 345 344 344 344 344 344 343 342 341 339 337 336 336 337 337 337 337 336 335 334 333 330 326 323 322 322 321 319 320 321 319 313 305 298 293 290 286 281 277 273 270 269 269 270 268 266 263 261 258 256 255 253 252 251 250 249 248 248 249 249 250 251 252 252
21 34 48 54 52 48 43 37 31 25 17 10 8 7 4 3 2 360 359 358 353 348 346 344 343 342 342 342 343 342 341 340 337 335 335 335 335 335 336 337 336 335 334 333 330 325 322 322 323 321 317 316 317 319 319 314 305 296 292 289 286 282 278 273 267 265 267 269 270 268 266 263 262 261 259 257 256 254 253 252 251 251 251 252 252 253 254
81 76 67 59 52 46 40 32 27 24 17 8 6 7 5 5 4 2 358 356 353 348 346 344 342 340 339 339 340 340 339 337 335 334 334 333 332 333 334 335 335 335 334 332 329 325 321 321 322 320 317 316 316 318 320 321 315 305 296 291 289 287 283 277 272 268 266 267 269 271 270 268 265 263 261 260 258 257 256 255 254 253 253 253 254 254 255
107 93 75 62 50 40 34 26 22 22 17 8 5 6 6 6 6 3 357 353 350 347 345 343 341 340 339 338 337 337 335 334 333 333 332 331 330 331 332 333 333 334 334 333 329 325 321 320 320 319 318 318 318 319 321 323 322 316 305 296 292 288 282 277 277 276 273 269 269 270 270 269 266 262 258 256 256 255 255 254 254 254 253 253 253 253 253
117 97 76 60 44 33 26 18 14 15 14 10 7 8 8 5 3 360 355 352 348 345 343 341 340 339 338 338 337 336 334 333 332 332 331 331 330 330 330 331 331 332 333 332 329 324 321 320 319 319 319 319 318 319 320 321 322 320 313 304 296 291 285 280 278 277 276 273 269 265 264 264 263 261 258 254 252 252 252 252 251 251 251 251 250 249 248
132 109 77 52 32 22 16 11 9 10 10 9 10 9 6 0 357 354 351 349 346 343 341 339 338 338 338 337 336 335 333 332 332 331 330 330 330 329 329 329 329 330 330 331 330 326 322 321 321 320 319 318 317 317 318 318 319 319 316 309 301 295 290 285 280 278 277 276 272 266 261 259 259 259 259 256 253 251 250 249 249 249 249 247 246 245 243
152 124 48 22 12 8 5 4 4 5 5 5 7 5 359 353 350 348 346 345 343 341 339 338 337 337 337 336 334 333 332 332 331 330 330 330 329 328 327 327 327 328 329 331 331 328 324 321 320 320 319 318 317 316 315 315 317 319 318 314 306 299 293 288 284 281 279 278 276 271 264 259 256 256 256 255 252 250 248 247 246 246 246 245 243 241 239
196 310 329 338 345 350 354 357 358 359 359 358 358 356 352 347 344 342 341 341 341 339 338 337 336 337 336 335 334 333 332 332 331 330 330 329 328 327 327 327 327 328 330 331 332 330 326 322 321 320 320 318 315 312 310 310 314 318 320 319 313 304 295 289 285 281 278 277 276 273 268 262 257 254 253 252 251 249 247 245 244 243 242 240 238 235 233
275 301 307 314 324 333 339 344 347 350 351 349 348 348 345 341 339 339 339 339 340 338 336 335 335 335 335 334 333 333 332 332 330 329 328 328 327 327 327 327 328 329 329 330 330 329 327 324 321 319 318 317 314 308 304 303 306 311 317 320 319 313 303 295 289 285 282 280 278 274 269 263 258 254 250 250 250 249 247 244 243 241 238 236 233 231 229
292 300 302 305 310 317 325 331 334 339 340 339 339 342 341 338 337 338 338 338 338 337 334 333 334 334 333 332 332 332 332 331 330 328 327 326 326 326 327 327 327 328 328 329 329 328 326 325 322 317 313 313 313 309 303 298 298 302 308 314 318 319 316 308 300 294 289 286 282 279 273 266 259 253 249 247 248 247 246 243 241 239 237 234 232 229 228
295 298 299 300 302 308 316 321 322 328 332 332 333 338 339 337 335 336 337 337 337 335 334 333 333 332 331 331 331 331 330 329 329 328 327 326 325 325 326 327 327 327 327 327 327 327 326 325 323 317 310 307 309 309 305 299 294 293 296 302 308 314 318 319 315 308 300 293 287 281 276 270 263 255 249 245 244 245 244 240 237 235 236 235 233 231 229
294 295 297 297 297 302 309 310 310 319 327 330 331 334 335 333 332 335 336 336 335 335 334 333 332 331 330 331 330 329 328 328 327 326 326 325 324 324 325 326 326 327 327 327 327 327 326 325 324 319 311 305 304 305 304 300 294 289 288 290 295 301 307 312 316 317 315 307 297 288 280 274 267 258 250 244 241 241 239 236 233 233 235 236 235 234 233
289 291 293 293 293 297 301 303 307 316 323 326 327 330 331 330 330 332 334 334 334 334 333 331 330 330 330 330 329 328 327 327 326 325 325 324 324 324 324 325 325 326 326 326 326 326 325 325 323 320 314 306 300 299 298 296 292 289 286 283 284 288 293 298 304 310 315 317 314 304 293 283 273 262 252 246 243 240 237 234 231 232 235 238 238 237 236
287 288 289 290 291 294 297 301 307 315 319 321 323 326 328 328 328 329 331 332 332 333 332 330 329 329 329 329 329 327 326 325 324 324 324 323 323 323 323 324 324 325 325 325 325 324 324 324 323 321 318 310 300 294 291 289 289 289 288 285 283 282 284 286 290 295 302 308 313 314 309 300 288 272 257 249 244 241 239 235 233 233 237 240 240 238 236
288 287 287 288 288 290 294 300 307 313 316 317 320 323 325 326 326 327 328 329 330 330 330 329 328 328 328 328 327 326 325 324 323 323 322 322 322 322 322 323 323 323 324 324 324 323 323 323 323 323 321 316 305 294 287 284 284 285 286 285 283 282 282 281 282 285 289 294 299 305 310 311 305 291 271 256 247 242 241 239 238 237 239 241 240 239 238
Height
5687 5690 5691 5692 5693 5695 5697 5699 5700 5702 5703 5704 5705 5706 5707 5708 5709 5710 5712 5713 5714 5715 5716 5717 5717 5718 5719 5719 5720 5721 5721 5721 5721 5722 5722 5722 5723 5723 5723 5723 5723 5723 5722 5722 5722 5722 5722 5721 5721 5722 5722 5722 5722 5723 5723 5723 5723 5723 5722 5722 5723 5725 5726 5727 5726 5726 5726 5727 5727 5728 5728 5730 5731 5732 5732 5733 5734 5734 5734 5735 5738 5739 5740 5740 5742 5743 5745
5685 5687 5688 5690 5691 5692 5694 5695 5697 5698 5700 5701 5702 5703 5704 5705 5706 5708 5709 5710 5711 5712 5713 5714 5715 5716 5716 5717 5717 5718 5719 5719 5719 5719 5719 5719 5719 5720 5720 5721 5721 5721 5720 5720 5719 5719 5719 5719 5719 5719 5719 5719 5719 5720 5720 5720 5720 5720 5720 5720 5720 5720 5721 5722 5723 5723 5723 5724 5725 5725 5725 5726 5727 5728 5729 5730 5731 5732 5732 5734 5735 5737 5738 5738 5739 5740 5742
5681 5683 5685 5686 5687 5689 5690 5692 5693 5695 5696 5698 5699 5700 5701 5702 5703 5705 5706 5707 5708 5709 5710 5711 5712 5713 5713 5714 5714 5715 5716 5716 5716 5717 5717 5716 5716 5717 5717 5718 5718 5718 5718 5718 5717 5717 5717 5717 5717 5717 5716 5716 5716 5717 5717 5717 5716 5716 5717 5717 5717 5717 5716 5717 5718 5719 5719 5720 5721 5721 5721 5722 5723 5724 5725 5727 5728 5729 5730 5731 5733 5735 5736 5735 5736 5737 5739
5678 5680 5682 5683 5683 5685 5686 5688 5690 5691 5693 5695 5696 5697 5698 5699 5700 5702 5703 5704 5704 5705 5707 5708 5709 5710 5710 5710 5710 5711 5711 5712 5713 5714 5714 5714 5713 5714 5714 5714 5715 5715 5716 5716 5715 5715 5715 5715 5715 5714 5714 5714 5714 5714 5713 5713 5713 5713 5713 5714 5714 5714 5713 5713 5713 5714 5715 5716 5716 5717 5717 5717 5718 5720 5721 5723 5725 5726 5727 5728 5730 5732 5732 5733 5733 5735 5735
5674 5676 5678 5679 5680 5681 5683 5685 5687 5689 5690 5691 5693 5694 5695 5696 5697 5698 5699 5700 5701 5702 5703 5705 5706 5707 5707 5707 5707 5707 5708 5709 5709 5710 5710 5710 5710 5710 5710 5710 5711 5712 5712 5713 5713 5713 5713 5712 5712 5712 5712 5711 5711 5711 5711 5711 5710 5710 5710 5710 5710 5711 5710 5709 5709 5709 5710 5711 5712 5712 5713 5713 5715 5716 5717 5719 5721 5722 5723 5725 5726 5727 5728 5729 5730 5732 5732
5671 5672 5674 5675 5676 5678 5680 5683 5684 5686 5687 5688 5690 5691 5692 5693 5694 5695 5696 5697 5698 5699 5700 5702 5703 5704 5704 5704 5704 5704 5705 5705 5706 5706 5706 5706 5707 5707 5707 5707 5707 5708 5708 5709 5709 5710 5710 5710 5710 5710 5710 5709 5709 5708 5708 5708 5707 5707 5708 5708 5707 5707 5707 5706 5705 5705 5705 5707 5708 5709 5709 5709 5711 5712 5713 5715 5717 5719 5719 5721 5723 5723 5724 5726 5727 5728 5729
5668 5670 5671 5672 5674 5676 5678 5680 5681 5682 5684 5685 5686 5687 5689 5690 5691 5692 5693 5694 5695 5696 5697 5698 5700 5700 5701 5701 5701 5701 5701 5702 5702 5702 5703 5703 5703 5704 5704 5703 5704 5704 5704 5705 5705 5706 5707 5707 5707 5707 5707 5707 5706 5706 5705 5705 5705 5705 5704 5704 5704 5704 5703 5703 5702 5702 5702 5703 5704 5706 5706 5706 5707 5708 5710 5712 5714 5715 5716 5718 5719 5720 5721 5722 5723 5724 5726
5666 5668 5669 5670 5672 5674 5675 5677 5678 5679 5681 5682 5683 5684 5686 5687 5688 5690 5691 5692 5693 5694 5695 5695 5696 5697 5698 5698 5698 5698 5698 5699 5699 5699 5700 5700 5700 5700 5700 5700 5700 5701 5701 5701 5702 5702 5703 5703 5703 5704 5704 5704 5703 5703 5703 5702 5702 5702 5701 5701 5701 5700 5700 5699 5699 5699 5699 5700 5701 5703 5704 5704 5704 5705 5707 5709 5710 5711 5713 5714 5715 5716 5717 5718 5720 5721 5722
5664 5666 5667 5668 5670 5671 5672 5674 5675 5677 5678 5679 5680 5681 5683 5684 5685 5686 5687 5689 5690 5691 5692 5693 5693 5694 5694 5694 5695 5695 5695 5696 5696 5696 5697 5697 5697 5697 5697 5697 5697 5697 5697 5697 5698 5698 5699 5699 5699 5700 5700 5701 5700 5700 5700 5700 5699 5699 5699 5698 5698 5698 5697 5697 5696 5696 5697 5697 5698 5699 5700 5701 5702 5703 5705 5706 5707 5708 5710 5710 5711 5712 5713 5715 5716 5717 5718
5662 5664 5665 5667 5668 5669 5670 5671 5672 5674 5675 5676 5677 5678 5679 5681 5682 5683 5684 5685 5687 5688 5689 5690 5690 5690 5691 5691 5691 5692 5692 5692 5693 5693 5693 5693 5693 5693 5693 5693 5694 5694 5694 5694 5695 5695 5696 5696 5696 5696 5697 5697 5698 5697 5697 5697 5697 5696 5696 5695 5695 5695 5695 5694 5693 5693 5694 5695 5695 5696 5698 5699 5700 5701 5702 5703 5704 5706 5707 5707 5708 5708 5710 5711 5712 5713 5714
5660 5661 5663 5664 5665 5666 5667 5669 5670 5671 5672 5673 5675 5675 5676 5678 5679 5680 5681 5682 5683 5684 5685 5686 5687 5687 5687 5687 5688 5688 5688 5688 5688 5689 5689 5689 5689 5690 5690 5690 5690 5691 5690 5690 5691 5692 5692 5693 5693 5693 5693 5694 5694 5694 5694 5694 5694 5693 5693 5692 5692 5693 5693 5692 5691 5691 5691 5692 5693 5694 5695 5696 5697 5699 5699 5700 5701 5703 5703 5704 5705 5706 5706 5707 5708 5709 5710
5657 5658 5660 5662 5663 5664 5665 5666 5667 5668 5669 5670 5672 5672 5673 5674 5676 5677 5678 5679 5680 5681 5682 5683 5684 5684 5684 5684 5684 5684 5684 5684 5684 5685 5685 5685 5685 5686 5686 5686 5687 5687 5687 5687 5687 5688 5688 5689 5689 5689 5690 5690 5691 5691 5691 5691 5691 5690 5690 5689 5689 5690 5690 5690 5689 5688 5688 5688 5690 5691 5692 5693 5695 5696 5697 5697 5698 5699 5700 5701 5702 5702 5702 5703 5704 5705 5707
5654 5656 5657 5659 5660 5661 5662 5663 5664 5665 5666 5668 5669 5669 5670 5671 5672 5673 5674 5675 5676 5677 5678 5679 5680 5680 5680 5680 5680 5680 5680 5680 5680 5681 5681 5681 5681 5681 5681 5682 5682 5682 5682 5683 5683 5683 5684 5685 5686 5685 5686 5686 5687 5687 5687 5687 5688 5687 5687 5686 5686 5687 5687 5687 5687 5686 5686 5686 5687 5688 5689 5691 5692 5693 5694 5694 5694 5695 5696 5698 5698 5699 5699 5701 5702 5703 5703
5652 5653 5654 5656 5657 5658 5660 5661 5662 5663 5664 5665 5666 5667 5668 5669 5669 5670 5671 5671 5673 5673 5674 5675 5676 5676 5676 5676 5676 5676 5676 5676 5676 5677 5677 5677 5677 5677 5677 5677 5677 5677 5678 5678 5679 5679 5680 5681 5681 5681 5682 5682 5683 5684 5684 5684 5684 5684 5684 5683 5683 5684 5684 5684 5684 5685 5685 5686 5687 5687 5688 5688 5689 5689 5690 5690 5691 5692 5693 5694 5695 5696 5697 5697 5698 5699 5700
5649 5651 5652 5653 5655 5656 5657 5659 5660 5661 5662 5663 5664 5665 5666 5666 5667 5668 5668 5669 5670 5671 5671 5672 5673 5673 5673 5673 5673 5673 5673 5673 5673 5672 5672 5672 5672 5672 5672 5673 5673 5673 5674 5674 5674 5675 5675 5675 5677 5678 5678 5678 5679 5680 5680 5680 5681 5681 5681 5680 5680 5681 5681 5681 5681 5682 5683 5684 5685 5685 5685 5685 5686 5686 5686 5686 5687 5688 5689 5690 5691 5692 5693 5694 5694 5695 5696
5647 5648 5650 5651 5652 5654 5655 5656 5657 5659 5660 5661 5662 5663 5664 5665 5665 5666 5666 5667 5668 5668 5669 5669 5670 5670 5670 5670 5670 5670 5670 5669 5669 5669 5668 5668 5668 5668 5668 5668 5669 5669 5669 5669 5669 5670 5670 5671 5672 5674 5674 5674 5674 5675 5676 5676 5676 5677 5677 5677 5677 5677 5678 5678 5678 5679 5680 5681 5681 5681 5681 5681 5682 5682 5683 5683 5683 5684 5685 5686 5687 5688 5689 5690 5690 5691 5692
5645 5646 5647 5648 5650 5651 5652 5654 5655 5656 5657 5658 5660 5661 5662 5663 5663 5664 5664 5665 5666 5666 5667 5667 5667 5667 5667 5667 5667 5667 5667 5666 5666 5666 5665 5665 5665 5665 5664 5665 5665 5665 5665 5665 5665 5665 5666 5667 5668 5668 5669 5669 5670 5670 5671 5672 5672 5672 5673 5674 5674 5674 5674 5675 5675 5675 5676 5677 5677 5677 5678 5677 5677 5678 5678 5679 5680 5681 5682 5682 5683 5685 5686 5686 5687 5688 5689
5643 5644 5645 5646 5647 5649 5650 5652 5653 5654 5655 5656 5657 5658 5659 5660 5661 5662 5662 5663 5664 5664 5664 5665 5665 5665 5665 5664 5664 5664 5664 5663 5663 5663 5662 5662 5661 5661 5661 5661 5661 5660 5660 5660 5660 5660 5661 5662 5663 5663 5663 5664 5665 5665 5666 5667 5667 5668 5668 5669 5670 5670 5671 5671 5672 5672 5672 5672 5673 5674 5674 5674 5674 5674 5675 5676 5676 5677 5678 5678 5679 5681 5682 5682 5682 5684 5685
5641 5642 5643 5644 5645 5646 5648 5650 5652 5653 5654 5655 5656 5657 5658 5658 5659 5660 5660 5661 5661 5662 5662 5662 5662 5662 5662 5662 5661 5661 5661 5660 5660 5659 5659 5658 5658 5657 5657 5657 5656 5656 5656 5656 5656 5656 5656 5657 5657 5658 5658 5658 5659 5660 5661 5661 5662 5663 5663 5664 5665 5666 5666 5666 5667 5668 5668 5669 5669 5670 5670 5671 5671 5672 5672 5673 5674 5674 5675 5675 5676 5677 5678 5678 5678 5680 5681
5639 5640 5641 5642 5643 5645 5647 5649 5651 5652 5653 5654 5655 5656 5657 5657 5658 5658 5659 5659 5659 5659 5660 5660 5660 5659 5659 5658 5658 5658 5657 5657 5656 5656 5655 5655 5654 5654 5653 5653 5652 5652 5652 5651 5651 5651 5652 5652 5652 5653 5653 5653 5654 5654 5655 5656 5657 5658 5658 5659 5659 5660 5661 5662 5662 5663 5664 5665 5665 5666 5666 5667 5668 5668 5669 5670 5670 5671 5672 5672 5673 5673 5673 5674 5675 5676 5677
5638 5639 5640 5641 5643 5645 5647 5649 5650 5651 5652 5653 5654 5655 5656 5656 5657 5657 5657 5658 5658 5658 5658 5657 5657 5656 5656 5655 5655 5654 5654 5653 5652 5652 5651 5651 5650 5650 5649 5649 5648 5647 5647 5647 5647 5647 5647 5647 5647 5648 5648 5648 5648 5649 5650 5651 5652 5653 5653 5654 5654 5655 5656 5657 5657 5658 5659 5660 5661 5662 5662 5663 5664 5665 5666 5666 5667 5668 5668 5669 5669 5669 5670 5670 5671 5673 5674
5638 5639 5640 5642 5643 5645 5647 5649 5650 5651 5652 5653 5654 5654 5655 5655 5656 5656 5656 5656 5656 5656 5656 5655 5654 5653 5653 5652 5651 5650 5649 5649 5648 5647 5647 5646 5645 5645 5644 5644 5643 5643 5642 5642 5642 5642 5642 5642 5642 5642 5643 5643 5643 5644 5644 5645 5647 5648 5649 5649 5650 5650 5651 5652 5652 5653 5654 5655 5656 5658 5659 5659 5660 5661 5662 5663 5664 5664 5665 5665 5666 5666 5666 5666 5667 5668 5670
5640 5641 5642 5643 5644 5646 5647 5648 5649 5651 5652 5653 5653 5654 5654 5654 5655 5655 5655 5655 5654 5654 5653 5652 5651 5650 5649 5648 5647 5646 5645 5644 5643 5642 5641 5640 5640 5639 5639 5638 5638 5637 5637 5637 5637 5637 5637 5637 5637 5637 5638 5638 5638 5639 5639 5640 5641 5642 5644 5645 5645 5646 5647 5647 5648 5648 5649 5650 5651 5653 5654 5655 5656 5657 5658 5658 5659 5660 5661 5661 5661 5662 5662 5662 5662 5663 5665
5642 5643 5644 5645 5645 5646 5648 5649 5650 5651 5652 5652 5652 5653 5653 5653 5653 5653 5653 5652 5652 5651 5650 5649 5648 5647 5645 5644 5643 5641 5640 5639 5638 5637 5636 5635 5634 5633 5632 5632 5631 5631 5631 5631 5631 5631 5632 5632 5632 5632 5632 5633 5633 5633 5634 5635 5636 5637 5638 5639 5640 5641 5641 5642 5643 5643 5643 5644 5646 5647 5648 5650 5651 5652 5653 5654 5654 5655 5656 5656 5656 5656 5656 5656 5657 5658 5659
5642 5644 5645 5646 5646 5647 5648 5649 5650 5650 5651 5651 5651 5651 5651 5651 5651 5651 5650 5650 5649 5648 5647 5646 5645 5643 5642 5640 5639 5638 5636 5635 5633 5632 5631 5630 5629 5627 5626 5626 5625 5624 5624 5625 5625 5625 5625 5626 5626 5626 5627 5627 5628 5628 5629 5630 5631 5631 5633 5633 5634 5635 5636 5637 5637 5638 5639 5639 5640 5641 5643 5644 5645 5646 5647 5648 5649 5650 5651 5651 5651 5651 5651 5651 5651 5652 5653
5643 5644 5645 5646 5647 5647 5648 5649 5649 5650 5650 5650 5650 5650 5650 5650 5649 5649 5649 5648 5647 5647 5646 5644 5643 5642 5640 5638 5637 5635 5633 5631 5630 5628 5627 5625 5624 5623 5622 5621 5619 5619 5619 5618 5618 5618 5619 5620 5620 5620 5621 5622 5622 5622 5623 5624 5625 5626 5627 5627 5628 5629 5630 5631 5631 5633 5634 5634 5635 5636 5638 5639 5640 5641 5642 5642 5643 5644 5645 5645 5646 5646 5646 5646 5646 5647 5648
5644 5645 5646 5647 5647 5648 5649 5649 5649 5650 5650 5650 5650 5650 5650 5649 5649 5648 5648 5647 5646 5645 5644 5643 5642 5640 5638 5637 5635 5633 5631 5629 5627 5625 5624 5622 5620 5619 5618 5617 5615 5615 5614 5613 5613 5613 5613 5613 5614 5614 5615 5616 5616 5617 5617 5618 5619 5620 5621 5621 5622 5623 5624 5624 5624 5626 5628 5628 5629 5631 5632 5633 5634 5635 5636 5636 5637 5638 5639 5639 5639 5640 5641 5641 5642 5643 5644
5645 5645 5646 5647 5647 5648 5648 5649 5649 5649 5649 5649 5649 5649 5649 5648 5648 5647 5646 5646 5645 5644 5642 5641 5639 5638 5637 5634 5632 5630 5629 5627 5625 5623 5622 5620 5618 5616 5614 5613 5611 5610 5610 5609 5608 5608 5608 5607 5607 5607 5608 5609 5610 5610 5611 5612 5613 5614 5615 5615 5616 5617 5618 5617 5617 5618 5620 5622 5623 5625 5626 5627 5628 5628 5629 5630 5630 5631 5632 5632 5633 5633 5634 5635 5637 5638 5638
5644 5645 5645 5646 5646 5646 5647 5647 5647 5647 5647 5647 5647 5647 5646 5646 5646 5645 5644 5643 5642 5641 5640 5638 5637 5635 5634 5632 5630 5628 5626 5625 5623 5621 5619 5617 5615 5613 5612 5610 5608 5607 5606 5605 5604 5603 5603 5602 5602 5601 5602 5602 5603 5603 5604 5605 5606 5608 5608 5609 5609 5610 5611 5611 5611 5612 5614 5615 5616 5617 5619 5620 5620 5621 5622 5623 5624 5625 5625 5626 5626 5627 5628 5629 5631 5632 5632
5644 5644 5645 5645 5645 5645 5645 5645 5645 5645 5645 5645 5645 5645 5645 5645 5644 5643 5642 5641 5640 5639 5638 5636 5634 5633 5631 5630 5628 5626 5625 5623 5621 5619 5617 5615 5613 5611 5609 5607 5606 5604 5603 5601 5600 5599 5599 5598 5597 5596 5595 5596 5596 5597 5597 5597 5599 5600 5601 5602 5602 5603 5604 5605 5606 5607 5608 5608 5608 5609 5611 5612 5613 5614 5616 5617 5618 5619 5619 5620 5620 5621 5621 5623 5625 5626 5626
5643 5643 5644 5644 5644 5644 5644 5645 5645 5645 5645 5645 5644 5644 5644 5643 5642 5641 5640 5639 5638 5637 5636 5634 5633 5631 5630 5628 5626 5625 5623 5621 5619 5617 5615 5614 5612 5610 5608 5605 5604 5602 5600 5599 5597 5596 5595 5593 5592 5591 5591 5590 5590 5590 5590 5590 5591 5592 5593 5594 5595 5595 5597 5599 5600 5601 5602 5602 5601 5602 5604 5605 5606 5608 5610 5611 5612 5613 5613 5614 5615 5615 5616 5617 5619 5620 5620
5642 5643 5643 5643 5643 5643 5643 5643 5643 5643 5643 5643 5642 5642 5641 5641 5640 5639 5638 5637 5636 5635 5634 5633 5631 5630 5628 5626 5625 5623 5621 5619 5618 5616 5614 5612 5610 5608 5606 5604 5602 5600 5598 5596 5595 5593 5591 5590 5589 5588 5587 5586 5585 5585 5584 5584 5585 5585 5585 5586 5587 5588 5590 5592 5593 5594 5595 5595 5595 5596 5598 5599 5600 5601 5603 5605 5606 5606 5607 5608 5608 5609 5610 5611 5613 5614 5615
5643 5643 5643 5643 5643 5643 5642 5642 5642 5641 5641 5641 5640 5640 5639 5639 5638 5637 5636 5635 5634 5633 5632 5631 5630 5628 5627 5625 5623 5621 5620 5618 5616 5614 5612 5610 5608 5606 5604 5602 5600 5598 5596 5594 5592 5590 5589 5587 5586 5584 5583 5582 5581 5581 5580 5579 5579 5579 5579 5579 5580 5581 5583 5585 5585 5585 5586 5587 5588 5590 5591 5592 5593 5595 5596 5598 5600 5600 5601 5601 5602 5604 5604 5605 5605 5607 5608
5642 5643 5643 5642 5642 5642 5641 5641 5641 5640 5639 5639 5639 5638 5638 5637 5636 5636 5635 5634 5633 5632 5631 5630 5628 5627 5625 5624 5622 5620 5618 5616 5614 5612 5610 5608 5606 5604 5602 5600 5597 5595 5593 5592 5589 5587 5586 5584 5583 5581 5580 5579 5578 5577 5576 5576 5575 5574 5574 5574 5574 5575 5576 5577 5577 5578 5579 5580 5581 5582 5584 5586 5587 5588 5589 5591 5592 5594 5595 5595 5597 5598 5599 5599 5599 5600 5602
5641 5641 5641 5641 5640 5640 5639 5639 5639 5639 5638 5637 5637 5637 5636 5636 5635 5634 5633 5632 5631 5630 5629 5628 5627 5626 5624 5622 5620 5618 5616 5614 5613 5611 5609 5607 5604 5602 5600 5597 5595 5593 5591 5589 5587 5585 5583 5581 5580 5578 5577 5576 5575 5574 5573 5572 5572 5571 5570 5569 5569 5569 5570 5570 5571 5571 5572 5572 5573 5575 5577 5579 5581 5582 5582 5583 5584 5586 5588 5589 5590 5592 5592 5592 5593 5594 5596
5639 5639 5639 5639 5638 5638 5638 5638 5637 5637 5637 5636 5636 5635 5635 5634 5634 5633 5632 5631 5630 5630 5628 5627 5626 5625 5623 5621 5619 5617 5615 5613 5611 5609 5607 5605 5603 5600 5598 5595 5593 5591 5589 5587 5585 5583 5581 5579 5577 5576 5574 5573 5572 5571 5570 5569 5568 5567 5567 5566 5566 5566 5566 5566 5566 5565 5565 5566 5567 5569 5570 5571 5573 5574 5575 5576 5577 5579 5580 5582 5583 5584 5585 5585 5586 5588 5589
5638 5638 5637 5637 5637 5637 5637 5636 5636 5636 5636 5635 5635 5635 5634 5633 5633 5632 5631 5630 5629 5629 5628 5626 5625 5624 5622 5620 5618 5616 5614 5612 5610 5607 5605 5603 5601 5599 5596 5593 5591 5589 5587 5585 5582 5581 5579 5577 5575 5573 5572 5571 5569 5568 5567 5566 5565 5564 5563 5563 5562 5562 5562 5562 5562 5561 5561 5560 5561 5563 5564 5565 5566 5567 5568 5569 5570 5571 5573 5575 5576 5577 5577 5578 5579 5581 5582
5636 5636 5636 5636 5636 5636 5636 5636 5635 5635 5635 5634 5634 5634 5633 5633 5632 5631 5630 5630 5629 5628 5627 5625 5624 5622 5621 5619 5617 5615 5613 5611 5608 5606 5603 5601 5599 5597 5594 5592 5589 5587 5584 5582 5580 5578 5577 5575 5573 5571 5570 5568 5567 5565 5564 5563 5562 5561 5560 5559 5559 5559 5559 5559 5559 5558 5557 5556 5557 5558 5559 5560 5561 5561 5562 5563 5564 5565 5566 5568 5569 5570 5571 5572 5573 5574 5575
5636 5635 5635 5635 5635 5635 5635 5635 5635 5634 5634 5634 5633 5633 5632 5631 5631 5630 5629 5629 5628 5627 5626 5624 5623 5621 5619 5618 5616 5614 5611 5609 5607 5604 5601 5599 5596 5594 5592 5590 5587 5585 5582 5580 5578 5576 5575 5573 5571 5569 5567 5566 5564 5563 5562 5560 5559 5558 5557 5556 5556 5555 5555 5554 5555 5555 5554 5553 5554 5554 5555 5556 5556 5557 5557 5558 5558 5559 5561 5562 5563 5564 5565 5566 5567 5568 5569
5635 5635 5635 5635 5635 5635 5635 5634 5634 5634 5633 5633 5632 5632 5631 5631 5630 5629 5628 5628 5627 5626 5625 5623 5622 5620 5618 5616 5614 5612 5610 5607 5605 5602 5600 5597 5594 5592 5590 5588 5586 5583 5581 5578 5576 5574 5572 5570 5569 5567 5565 5564 5562 5560 5559 5558 5556 5555 5554 5553 5553 5552 5551 5550 5550 5551 5551 5551 5551 5551 5551 5552 5553 5553 5553 5553 5554 5554 5555 5556 5557 5558 5559 5560 5562 5563 5563
5635 5635 5635 5635 5634 5634 5634 5634 5634 5633 5633 5632 5631 5631 5630 5630 5629 5629 5628 5627 5626 5625 5623 5622 5620 5619 5617 5615 5613 5611 5608 5606 5604 5601 5599 5596 5593 5590 5588 5586 5583 5581 5578 5576 5574 5572 5570 5568 5566 5564 5562 5561 5559 5558 5556 5555 5553 5552 5551 5550 5549 5549 5549 5547 5547 5547 5548 5548 5548 5548 5548 5548 5548 5549 5549 5549 5550 5550 5551 5552 5552 5553 5554 5556 5557 5558 5559
5635 5634 5634 5634 5634 5634 5634 5633 5633 5633 5632 5632 5631 5630 5630 5629 5628 5628 5627 5626 5625 5623 5622 5621 5619 5617 5615 5613 5611 5609 5607 5604 5602 5600 5597 5594 5592 5589 5586 5584 5581 5579 5576 5574 5572 5570 5568 5566 5564 5562 5560 5558 5557 5555 5553 5552 5551 5549 5548 5547 5546 5546 5545 5545 5544 5544 5544 5544 5544 5545 5544 5544 5544 5544 5545 5545 5546 5546 5547 5547 5548 5549 5550 5551 5553 5553 5554
5634 5634 5634 5634 5633 5633 5633 5633 5632 5632 5631 5631 5630 5630 5629 5628 5627 5626 5626 5624 5623 5622 5621 5619 5617 5615 5613 5611 5609 5607 5605 5602 5600 5597 5595 5592 5590 5587 5584 5582 5579 5577 5575 5572 5570 5568 5565 5563 5562 5560 5558 5556 5554 5553 5551 5550 5548 5547 5546 5545 5544 5543 5542 5541 5541 5541 5540 5540 5541 5541 5541 5540 5540 5540 5541 5541 5542 5542 5543 5543 5544 5545 5546 5548 5549 5549 5550
5633 5633 5633 5633 5633 5632 5632 5632 5631 5631 5630 5630 5629 5629 5628 5627 5626 5625 5624 5623 5622 5620 5619 5617 5615 5613 5611 5609 5607 5605 5603 5600 5598 5596 5593 5590 5588 5585 5583 5580 5578 5575 5573 5570 5567 5565 5563 5561 5559 5557 5555 5553 5552 5550 5549 5548 5546 5545 5543 5542 5541 5540 5539 5538 5538 5537 5537 5537 5537 5537 5537 5537 5537 5537 5537 5537 5538 5539 5539 5540 5541 5542 5543 5544 5545 5546 5547
5633 5632 5632 5632 5632 5632 5631 5631 5631 5630 5629 5629 5628 5628 5627 5626 5625 5623 5622 5621 5620 5618 5616 5614 5612 5611 5609 5607 5605 5603 5600 5598 5596 5594 5591 5588 5586 5583 5581 5578 5575 5573 5570 5567 5565 5562 5560 5558 5556 5554 5553 5551 5550 5548 5547 5546 5544 5543 5542 5540 5539 5538 5537 5536 5535 5534 5534 5534 5534 5534 5534 5534 5534 5534 5534 5534 5534 5535 5536 5537 5537 5538 5540 5541 5542 5543 5544
5632 5631 5631 5631 5631 5630 5630 5630 5630 5629 5628 5628 5627 5626 5625 5624 5623 5622 5620 5619 5618 5616 5614 5612 5610 5608 5606 5604 5602 5600 5598 5595 5593 5591 5588 5586 5583 5581 5578 5575 5572 5570 5567 5565 5562 5560 5557 5555 5554 5552 5550 5549 5547 5546 5545 5543 5542 5541 5540 5539 5537 5536 5534 5533 5532 5532 5532 5531 5531 5531 5531 5531 5531 5530 5531 5531 5531 5532 5533 5533 5534 5535 5536 5537 5538 5539 5541
5631 5630 5630 5630 5629 5629 5629 5628 5628 5628 5627 5626 5626 5625 5624 5622 5621 5620 5618 5617 5615 5614 5612 5610 5608 5606 5604 5601 5599 5597 5595 5593 5590 5588 5585 5583 5580 5578 5575 5572 5570 5567 5564 5562 5559 5557 5555 5553 5551 5549 5548 5546 5544 5543 5542 5541 5540 5539 5538 5537 5536 5534 5533 5532 5530 5530 5529 5529 5528 5528 5528 5528 5528 5528 5528 5528 5528 5529 5529 5530 5531 5532 5533 5535 5535 5536 5537
5629 5629 5628 5628 5628 5627 5627 5627 5626 5626 5625 5625 5624 5623 5622 5620 5619 5617 5616 5614 5613 5611 5609 5607 5605 5603 5601 5599 5596 5594 5592 5590 5587 5585 5582 5580 5577 5574 5572 5569 5567 5565 5562 5559 5557 5554 5552 5550 5548 5547 5545 5543 5541 5540 5539 5538 5537 5536 5536 5535 5534 5532 5531 5530 5529 5528 5527 5526 5526 5525 5524 5525 5525 5525 5525 5525 5525 5526 5527 5527 5528 5529 5530 5531 5532 5533 5534
5627 5627 5627 5626 5626 5626 5625 5625 5625 5624 5624 5623 5621 5620 5619 5618 5616 5615 5614 5612 5610 5609 5607 5605 5602 5600 5598 5596 5594 5591 5589 5587 5584 5582 5579 5577 5574 5572 5569 5566 5564 5561 5559 5557 5554 5552 5549 5547 5545 5543 5542 5540 5538 5537 5536 5534 5533 5533 5533 5532 5531 5530 5529 5528 5527 5526 5525 5524 5523 5523 5522 5522 5522 5522 5522 5522 5523 5523 5524 5525 5526 5527 5527 5528 5529 5530 5531
5626 5625 5625 5625 5624 5624 5624 5623 5622 5622 5621 5621 5620 5618 5617 5615 5614 5612 5611 5609 5608 5606 5604 5602 5599 5597 5595 5593 5591 5588 5586 5584 5581 5579 5576 5574 5571 5569 5566 5563 5561 5558 5556 5554 5551 5549 5546 5544 5542 5540 5538 5537 5535 5534 5532 5531 5530 5530 5529 5529 5528 5528 5527 5526 5525 5524 5523 5522 5521 5521 5520 5519 5519 5519 5519 5519 5520 5520 5521 5522 5523 5524 5525 5525 5526 5527 5528
5624 5624 5623 5623 5623 5622 5622 5621 5620 5619 5619 5618 5617 5616 5615 5613 5611 5610 5608 5607 5605 5603 5601 5599 5596 5594 5592 5590 5588 5585 5583 5580 5578 5575 5573 5571 5568 5566 5563 5560 5558 5555 5553 5550 5548 5545 5543 5541 5538 5536 5534 5533 5531 5530 5529 5528 5527 5527 5526 5525 5525 5525 5524 5523 5523 5522 5521 5520 5520 5519 5518 5517 5517 5517 5517 5517 5517 5518 5518 5519 5520 5521 5522 5522 5523 5524 5525
5622 5622 5621 5621 5621 5620 5620 5619 5618 5617 5616 5615 5614 5613 5612 5610 5609 5607 5605 5603 5602 5600 5598 5596 5593 5591 5589 5586 5584 5581 5579 5577 5574 5571 5569 5567 5564 5562 5559 5557 5554 5552 5549 5547 5545 5542 5540 5537 5535 5533 5531 5529 5527 5526 5525 5524 5524 5523 5523 5522 5522 5521 5521 5520 5520 5519 5519 5518 5518 5517 5516 5515 5515 5514 5514 5514 5514 5515 5516 5516 5517 5517 5518 5519 5519 5520 5521